Location: Sungai Kamana Besar
(2.6333°N, 113.4333°E)
Time: 08:31:48
(UTC+00:00)

Centaur Rocket - Visible Passes

Search period start: 06 October 2022 00:00
Search period end: 16 October 2022 00:00
Orbit: 255 x 8499 km, 18.1° (Epoch: 05 October)

Date Brightness Start Highest point End Pass type
(mag) Time Alt. Az. Time Alt. Az. Time Alt. Az.
06 Oct 5.9 12:17:08 10° NW 12:23:13 34° NNE 12:24:47 33° NNE visible
06 Oct 8.5 16:13:44 42° E 16:13:44 42° E 16:52:32 10° E visible
06 Oct 8.0 19:18:40 56° WNW 19:42:37 84° SSW 20:38:44 10° ESE visible
07 Oct 6.2 12:58:54 10° NW 13:04:02 35° N 13:04:02 35° N visible
07 Oct 8.2 16:52:59 57° E 16:52:59 57° E 17:43:43 10° ESE visible
07 Oct 8.2 19:57:54 41° W 20:33:47 75° SSW 21:23:03 10° ESE visible
08 Oct 5.0 10:26:32 10° NW 10:29:14 21° N 10:34:21 10° NE visible
08 Oct 6.7 13:40:24 10° NW 14:27:06 - E 13:43:01 24° NW visible
08 Oct 8.0 17:31:58 74° ENE 17:31:58 74° ENE 18:32:30 10° ESE visible
08 Oct 8.4 20:36:49 28° W 21:24:35 67° SSW 22:06:30 10° ESE visible
09 Oct 5.4 11:07:50 10° NW 11:11:25 22° NNE 11:16:56 13° NE visible
09 Oct 7.3 14:21:40 10° NW 15:05:49 19° E 15:18:07 10° E visible
09 Oct 7.9 18:10:39 86° NW 18:12:40 89° NNE 19:19:21 10° ESE visible
09 Oct 8.6 21:15:28 16° W 22:14:35 60° SSW 22:49:19 10° ESE visible
10 Oct 5.8 11:48:44 10° NW 11:53:27 26° NNE 11:55:29 24° NE visible
10 Oct 8.6 15:44:15 31° E 15:44:15 31° E 16:11:19 10° E visible
10 Oct 7.9 18:49:03 69° W 19:01:30 83° SSW 20:04:41 10° ESE visible
10 Oct 8.6 21:58:57 10° W 23:03:25 54° SSW 23:31:34 10° ESE visible
11 Oct 5.9 12:29:17 10° NW 12:33:48 30° N 12:33:48 30° N visible
11 Oct 8.4 16:22:24 45° E 16:22:24 45° E 17:02:40 10° ESE visible
11 Oct 8.0 19:27:10 53° W 19:51:05 75° SSW 20:48:50 10° ESE visible
12 Oct 6.3 13:09:33 10° NW 13:11:52 23° NNW 13:11:52 23° NNW visible
12 Oct 8.1 17:00:16 61° E 17:00:16 61° E 17:51:51 10° ESE visible
12 Oct 8.2 20:04:58 37° W 20:41:08 67° SSW 21:32:05 10° ESE visible
13 Oct 5.3 10:37:02 10° NNW 10:39:07 14° NNE 10:42:14 10° NE visible
13 Oct 7.0 13:49:33 10° NW 14:33:09 10° E 13:49:42 11° NW visible
13 Oct 7.9 17:37:50 77° ESE 17:37:50 77° ESE 18:39:04 10° ESE visible
13 Oct 8.4 20:42:31 24° W 21:31:12 61° SSW 22:14:33 10° ESE visible
14 Oct 5.6 11:16:39 10° NNW 11:19:54 18° NNE 11:22:37 15° NE visible
14 Oct 8.8 15:10:29 20° E 15:10:29 20° E 15:23:59 10° E visible
14 Oct 7.8 18:15:08 81° SW 18:17:17 81° SSW 19:24:40 10° ESE visible
14 Oct 8.6 21:19:47 12° W 22:20:41 56° SSW 22:56:24 10° ESE visible
15 Oct 5.7 11:55:55 10° NNW 12:00:00 24° NNE 12:00:00 24° NNE visible
15 Oct 8.5 15:47:32 33° E 15:47:32 33° E 16:14:44 10° ESE visible
15 Oct 7.9 18:52:09 64° WSW 19:04:29 74° SSW 20:08:59 10° ESE visible
